CFG4DE EDDF-EDDH

Flight info

Callsign CFG4DE
Flight time 0h 46m
Altitude 31000
Route MARUN3W/25C MARUN Y150 TOLGI DCT SAS/N0444F300 P605 NOLGO NOLGO3P
Aircraft A320/M-SDE3FGHIRWY/LB1

Departure

Time 2026-05-04 13:48
Airport Frankfurt Main Airport (EDDF)

Arrival

Time 2026-05-04 14:34
Airport Hamburg Helmut Schmidt Airport (EDDH)
Time Latitude Longitude Altitude Speed Heading
2026-05-04 13:26 50.04380 8.56970 360 ft 0 kts 160°
2026-05-04 13:43 50.04373 8.56974 366 ft 4 kts 160°
2026-05-04 13:43 50.04333 8.56998 362 ft 6 kts 154°
2026-05-04 13:43 50.04318 8.57065 361 ft 7 kts 81°
2026-05-04 13:44 50.04333 8.57146 362 ft 8 kts 71°
2026-05-04 13:44 50.04355 8.57239 361 ft 11 kts 69°
2026-05-04 13:44 50.04390 8.57385 368 ft 17 kts 70°
2026-05-04 13:44 50.04434 8.57562 364 ft 16 kts 68°
2026-05-04 13:45 50.04469 8.57705 364 ft 13 kts 70°
2026-05-04 13:45 50.04497 8.57830 366 ft 11 kts 70°
2026-05-04 13:45 50.04526 8.57950 364 ft 14 kts 69°
2026-05-04 13:45 50.04569 8.58152 364 ft 25 kts 70°
2026-05-04 13:46 50.04614 8.58328 368 ft 14 kts 68°
2026-05-04 13:46 50.04646 8.58457 372 ft 11 kts 71°
2026-05-04 13:46 50.04641 8.58561 370 ft 9 kts 130°
2026-05-04 13:46 50.04588 8.58596 370 ft 8 kts 162°
2026-05-04 13:47 50.04520 8.58622 371 ft 12 kts 181°
2026-05-04 13:47 50.04467 8.58503 370 ft 23 kts 249°
2026-05-04 13:47 50.04324 8.57912 369 ft 92 kts 250°
2026-05-04 13:47 50.04031 8.56686 359 ft 147 kts 250°
2026-05-04 13:48 50.03655 8.55028 647 ft 166 kts 248°
2026-05-04 13:48 50.03256 8.53316 1359 ft 171 kts 250°
2026-05-04 13:48 50.02828 8.51537 2021 ft 183 kts 249°
2026-05-04 13:48 50.02165 8.49736 2624 ft 201 kts 227°
2026-05-04 13:49 50.01061 8.48449 3559 ft 205 kts 207°
2026-05-04 13:49 49.99663 8.47882 4449 ft 211 kts 191°
2026-05-04 13:49 49.98204 8.47555 5236 ft 213 kts 191°
2026-05-04 13:49 49.96738 8.47232 6040 ft 213 kts 191°
2026-05-04 13:50 49.95289 8.46713 6719 ft 219 kts 198°
2026-05-04 13:50 49.93749 8.46007 6940 ft 239 kts 198°
2026-05-04 13:50 49.92198 8.45008 7268 ft 245 kts 216°
2026-05-04 13:50 49.91054 8.43046 8057 ft 250 kts 241°
2026-05-04 13:51 49.90612 8.40445 8745 ft 260 kts 267°
2026-05-04 13:51 49.91080 8.37729 8950 ft 268 kts 299°
2026-05-04 13:51 49.92426 8.35736 8996 ft 274 kts 330°
2026-05-04 13:51 49.94206 8.34507 9047 ft 292 kts 335°
2026-05-04 13:52 49.98108 8.32007 10447 ft 316 kts 335°
2026-05-04 13:52 50.00218 8.30655 10705 ft 340 kts 336°
2026-05-04 13:52 50.02540 8.29487 10923 ft 362 kts 347°
2026-05-04 13:53 50.05076 8.29059 11475 ft 371 kts 359°
2026-05-04 13:53 50.07653 8.29433 12166 ft 375 kts 11°
2026-05-04 13:53 50.10170 8.30564 12871 ft 378 kts 19°
2026-05-04 13:54 50.14971 8.34004 14197 ft 384 kts 32°
2026-05-04 13:54 50.17271 8.36168 14814 ft 388 kts 32°
2026-05-04 13:54 50.21921 8.40608 15979 ft 395 kts 32°
2026-05-04 13:55 50.24271 8.42873 16565 ft 399 kts 32°
2026-05-04 13:55 50.29046 8.47491 17711 ft 407 kts 32°
2026-05-04 13:55 50.31470 8.49830 18289 ft 411 kts 32°
2026-05-04 13:56 50.33917 8.52189 18808 ft 415 kts 32°
2026-05-04 13:56 50.36383 8.54570 19314 ft 419 kts 32°
2026-05-04 13:56 50.41377 8.59402 20351 ft 426 kts 32°
2026-05-04 13:57 50.43916 8.61858 20840 ft 430 kts 32°
2026-05-04 13:57 50.46477 8.64336 21305 ft 434 kts 32°
2026-05-04 13:58 50.54280 8.71919 22640 ft 445 kts 31°
2026-05-04 13:58 50.59582 8.77090 23499 ft 452 kts 31°
2026-05-04 13:58 50.62263 8.79712 23868 ft 455 kts 31°
2026-05-04 13:59 50.64952 8.82349 24241 ft 457 kts 31°
2026-05-04 13:59 50.67655 8.85004 24585 ft 459 kts 31°
2026-05-04 13:59 50.73101 8.90354 25294 ft 463 kts 31°
2026-05-04 14:00 50.75839 8.93048 25633 ft 465 kts 31°
2026-05-04 14:00 50.81348 8.98493 26292 ft 469 kts 31°
2026-05-04 14:00 50.84120 9.01240 26607 ft 471 kts 31°
2026-05-04 14:01 50.86906 9.04002 26917 ft 474 kts 31°
2026-05-04 14:01 50.89706 9.06776 27200 ft 476 kts 31°
2026-05-04 14:01 50.95346 9.12370 27789 ft 481 kts 31°
2026-05-04 14:02 50.98182 9.15193 27949 ft 482 kts 31°
2026-05-04 14:02 51.01022 9.18025 27982 ft 482 kts 31°
2026-05-04 14:02 51.03824 9.20827 27973 ft 482 kts 31°
2026-05-04 14:02 51.06658 9.23669 27976 ft 482 kts 31°
2026-05-04 14:03 51.09545 9.26370 27979 ft 481 kts 25°
2026-05-04 14:03 51.12616 9.28435 27976 ft 479 kts 16°
2026-05-04 14:03 51.15826 9.29804 27975 ft 477 kts
2026-05-04 14:03 51.19073 9.30914 27980 ft 477 kts
2026-05-04 14:04 51.25563 9.33146 27971 ft 477 kts
2026-05-04 14:04 51.28810 9.34271 27974 ft 477 kts
2026-05-04 14:04 51.32052 9.35400 27976 ft 477 kts
2026-05-04 14:05 51.38548 9.37663 28275 ft 480 kts
2026-05-04 14:05 51.41828 9.38808 28551 ft 482 kts
2026-05-04 14:05 51.45115 9.39956 28812 ft 484 kts
2026-05-04 14:06 51.47299 9.40719 28974 ft 486 kts
2026-05-04 14:06 51.50611 9.41880 29212 ft 488 kts
2026-05-04 14:06 51.53935 9.43052 29457 ft 490 kts
2026-05-04 14:06 51.57267 9.44229 29710 ft 491 kts
2026-05-04 14:07 51.60606 9.45406 30045 ft 491 kts
2026-05-04 14:07 51.63932 9.46577 30330 ft 490 kts
2026-05-04 14:07 51.67263 9.47748 30617 ft 489 kts
2026-05-04 14:07 51.70582 9.48918 30889 ft 488 kts
2026-05-04 14:08 51.73884 9.50087 30956 ft 480 kts
2026-05-04 14:08 51.80358 9.52403 30960 ft 480 kts
2026-05-04 14:09 51.89684 9.58879 30957 ft 491 kts 24°
2026-05-04 14:10 51.98813 9.66446 30959 ft 492 kts 23°
2026-05-04 14:10 52.04911 9.71499 30961 ft 492 kts 24°
2026-05-04 14:11 52.10995 9.76572 30964 ft 491 kts 24°
2026-05-04 14:11 52.20103 9.84236 30968 ft 491 kts 24°
2026-05-04 14:12 52.26184 9.88826 30965 ft 485 kts 13°
2026-05-04 14:13 52.35904 9.93146 30968 ft 483 kts 10°
2026-05-04 14:13 52.42398 9.96018 30958 ft 484 kts 10°
2026-05-04 14:13 52.45642 9.97456 30474 ft 482 kts 10°
2026-05-04 14:14 52.48888 9.98896 28460 ft 489 kts 10°
2026-05-04 14:14 52.55338 10.01783 26872 ft 456 kts 10°
2026-05-04 14:14 52.58355 10.03143 26258 ft 444 kts 10°
2026-05-04 14:15 52.64228 10.05759 25059 ft 433 kts 10°
2026-05-04 14:15 52.69997 10.08321 23881 ft 426 kts 10°
2026-05-04 14:16 52.75660 10.10855 22677 ft 417 kts
2026-05-04 14:16 52.78496 10.11698 22165 ft 412 kts
2026-05-04 14:17 52.84127 10.11986 21178 ft 403 kts 356°
2026-05-04 14:17 52.86928 10.12070 20703 ft 401 kts 356°
2026-05-04 14:17 52.92469 10.12259 19793 ft 395 kts 356°
2026-05-04 14:18 52.95212 10.12354 19357 ft 393 kts 356°
2026-05-04 14:18 53.00629 10.12530 18467 ft 387 kts 356°
2026-05-04 14:19 53.05986 10.12702 17502 ft 382 kts 357°
2026-05-04 14:19 53.08637 10.12791 17034 ft 379 kts 357°
2026-05-04 14:19 53.11251 10.12882 16788 ft 370 kts 357°
2026-05-04 14:19 53.13784 10.12976 16653 ft 358 kts 357°
2026-05-04 14:20 53.16236 10.13068 16524 ft 348 kts 356°
2026-05-04 14:20 53.17018 10.13097 16481 ft 344 kts 356°
2026-05-04 14:20 53.17953 10.13129 16407 ft 340 kts 356°
2026-05-04 14:21 53.22740 10.13267 15271 ft 348 kts 357°
2026-05-04 14:21 53.25178 10.13339 14660 ft 353 kts 357°
2026-05-04 14:21 53.27646 10.13417 14062 ft 355 kts 357°
2026-05-04 14:21 53.30053 10.13501 13436 ft 346 kts 358°
2026-05-04 14:22 53.32464 10.13591 12774 ft 338 kts 358°
2026-05-04 14:22 53.34784 10.13678 12130 ft 330 kts 358°
2026-05-04 14:22 53.37051 10.13762 11500 ft 322 kts 358°
2026-05-04 14:22 53.39274 10.13837 10881 ft 316 kts 356°
2026-05-04 14:23 53.43530 10.13356 9657 ft 304 kts 352°
2026-05-04 14:23 53.45620 10.13087 8998 ft 299 kts 352°
2026-05-04 14:23 53.47682 10.12825 8360 ft 295 kts 352°
2026-05-04 14:24 53.49705 10.12567 7726 ft 290 kts 352°
2026-05-04 14:24 53.51705 10.12318 7101 ft 286 kts 353°
2026-05-04 14:24 53.53678 10.12073 6491 ft 282 kts 353°
2026-05-04 14:24 53.55622 10.11830 5847 ft 278 kts 354°
2026-05-04 14:25 53.57502 10.12167 5582 ft 264 kts 14°
2026-05-04 14:25 53.60360 10.15469 5198 ft 250 kts 48°
2026-05-04 14:25 53.61476 10.17699 4943 ft 248 kts 48°
2026-05-04 14:26 53.62584 10.19928 4691 ft 247 kts 48°
2026-05-04 14:26 53.63681 10.22142 4431 ft 246 kts 48°
2026-05-04 14:26 53.64778 10.24348 4173 ft 245 kts 48°
2026-05-04 14:26 53.65866 10.26540 3917 ft 243 kts 47°
2026-05-04 14:27 53.66951 10.28729 3659 ft 243 kts 48°
2026-05-04 14:27 53.68030 10.30915 3410 ft 242 kts 48°
2026-05-04 14:27 53.69109 10.33097 3158 ft 244 kts 46°
2026-05-04 14:27 53.70471 10.34751 3000 ft 239 kts 16°
2026-05-04 14:28 53.72042 10.35142 2984 ft 221 kts 352°
2026-05-04 14:28 53.73463 10.34473 2996 ft 205 kts 331°
2026-05-04 14:28 53.74591 10.33154 2993 ft 193 kts 313°
2026-05-04 14:28 53.75385 10.31433 3006 ft 179 kts 298°
2026-05-04 14:29 53.75956 10.27647 2999 ft 172 kts 269°
2026-05-04 14:29 53.75249 10.23753 3003 ft 178 kts 239°
2026-05-04 14:30 53.74472 10.22112 3002 ft 180 kts 233°
2026-05-04 14:30 53.73678 10.20488 3006 ft 180 kts 233°
2026-05-04 14:30 53.72093 10.17248 2693 ft 176 kts 233°
2026-05-04 14:31 53.71320 10.15670 2480 ft 172 kts 232°
2026-05-04 14:31 53.69818 10.12609 2019 ft 169 kts 234°
2026-05-04 14:32 53.68322 10.09576 1550 ft 165 kts 232°
2026-05-04 14:32 53.67611 10.08131 1325 ft 157 kts 234°
2026-05-04 14:32 53.66925 10.06733 1147 ft 158 kts 233°
2026-05-04 14:32 53.66202 10.05253 935 ft 166 kts 233°
2026-05-04 14:33 53.65469 10.03766 703 ft 163 kts 233°
2026-05-04 14:33 53.64752 10.02322 440 ft 159 kts 234°
2026-05-04 14:33 53.64064 10.00914 219 ft 157 kts 234°
2026-05-04 14:33 53.63375 9.99514 52 ft 148 kts 234°
2026-05-04 14:34 53.62810 9.98326 43 ft 102 kts 228°
2026-05-04 14:34 53.62570 9.97875 41 ft 23 kts 230°
2026-05-04 14:34 53.62475 9.97792 38 ft 15 kts 164°
2026-05-04 14:34 53.62428 9.97897 45 ft 9 kts 93°
2026-05-04 14:35 53.62434 9.97982 47 ft 8 kts 79°
2026-05-04 14:35 53.62467 9.98099 47 ft 15 kts 50°
2026-05-04 14:35 53.62539 9.98247 47 ft 17 kts 50°
2026-05-04 14:35 53.62619 9.98410 47 ft 19 kts 51°
2026-05-04 14:36 53.62709 9.98586 47 ft 21 kts 47°
2026-05-04 14:36 53.62805 9.98778 47 ft 22 kts 52°
2026-05-04 14:36 53.62903 9.98982 47 ft 22 kts 50°
2026-05-04 14:36 53.63003 9.99187 47 ft 23 kts 51°
2026-05-04 14:37 53.63098 9.99400 46 ft 23 kts 56°
2026-05-04 14:37 53.63193 9.99616 47 ft 18 kts 51°
2026-05-04 14:37 53.63266 9.99747 48 ft 15 kts 45°
2026-05-04 14:37 53.63338 9.99884 48 ft 17 kts 50°
2026-05-04 14:38 53.63413 10.00039 48 ft 15 kts 51°
2026-05-04 14:38 53.63389 10.00159 48 ft 13 kts 172°
2026-05-04 14:38 53.63304 10.00170 46 ft 12 kts 173°
2026-05-04 14:38 53.63236 10.00179 46 ft 10 kts 174°
2026-05-04 14:39 53.63201 10.00254 48 ft 8 kts 94°
2026-05-04 14:39 53.63205 10.00347 48 ft 5 kts 86°
2026-05-04 14:39 53.63206 10.00368 48 ft 1 kts 86°
2026-05-04 14:40 53.63206 10.00374 48 ft 0 kts 86°